Del Bajio, Mexico

12:56 AM CDT on July 27, 2017 (GMT -0500)
De Guanajuato International

Weather History for MMLO - August, 2013

Change the Weather History Date:

Monday, August 5, 2013

  Actual Average Record
Temperature  
Mean Temperature 70 °F -  
Max Temperature 82 °F 79 °F 91 °F (2011)
Min Temperature 59 °F 58 °F 55 °F (2003)
Cooling Degree Days 6    
Growing Degree Days 20 (Base 50)    
Moisture  
Dew Point 57 °F    
Average Humidity 63    
Maximum Humidity 94    
Minimum Humidity 37    
Precipitation  
Precipitation 0.00 in - - ()
Sea Level Pressure  
Sea Level Pressure 30.13 in    
Wind  
Wind Speed 3 mph ()    
Max Wind Speed 12 mph    
Max Gust Speed -    
Visibility 8.1 miles    
Events      
Averages and records for this station are not official NWS values.
T = Trace of Precipitation, MM = Missing Value Source: Averaged Metar Reports

Daily Weather History Graph

Daily Weather History Graph

Search for Another Location

Airport or City:

Trip Planner

Search our weather history database for the weather conditions in past years. The results will help you decide how hot, cold, wet, or windy it might be!

Date:

Astronomy

Aug. 05, 2013 Rise Set
Actual Time 7:21 AM CDT 8:22 PM CDT
Civil Twilight 6:57 AM CDT 8:45 PM CDT
Nautical Twilight 6:30 AM CDT 9:13 PM CDT
Astronomical Twilight 6:01 AM CDT 9:41 PM CDT
Moon 6:16 AM CDT (8/5) 7:28 PM CDT (8/5)
Length of Visible Light 13h 47m
Length of Day
13h 00m
Waning Crescent, 1% of the Moon is Illuminated
Aug 5
Waning Crescent
Aug 6
New
Aug 14
First Quarter
Aug 20
Full
Aug 28
Last Quarter

Hourly Weather History & Observations

Time (CDT) Temp. Heat Index Dew Point Humidity Pressure Visibility Wind Dir Wind Speed Gust Speed Precip Events Conditions
12:43 AM 64.4 °F - 59.0 °F 83% 29.92 in 8.0 mi SSE 3.5 mph - N/A   Mostly Cloudy
3:48 AM 60.8 °F - 57.2 °F 88% 29.91 in 8.0 mi Calm Calm - N/A   Partly Cloudy
4:46 AM 60.8 °F - 57.2 °F 88% 30.29 in 8.0 mi Calm Calm - N/A   Scattered Clouds
5:44 AM 60.8 °F - 59.0 °F 94% 30.29 in 8.0 mi Calm Calm - N/A   Scattered Clouds
6:48 AM 59.0 °F - 57.2 °F 94% 29.94 in 8.0 mi Calm Calm - N/A   Scattered Clouds
7:50 AM 60.8 °F - 57.2 °F 88% 30.30 in 5.0 mi Calm Calm - N/A   Scattered Clouds
8:44 AM 64.4 °F - 57.2 °F 77% 30.32 in 5.0 mi Calm Calm - N/A   Scattered Clouds
10:51 AM 75.2 °F - 53.6 °F 47% 30.35 in 7.0 mi Calm Calm - N/A   Scattered Clouds
11:50 AM 75.2 °F - 57.2 °F 53% 30.33 in 8.0 mi South 5.8 mph - N/A   Scattered Clouds
12:43 PM 78.8 °F - 55.4 °F 44% 29.90 in 8.0 mi South 5.8 mph - N/A   Scattered Clouds
1:50 PM 80.6 °F 80.3 °F 53.6 °F 39% 30.29 in 8.0 mi South 3.5 mph - N/A   Scattered Clouds
2:43 PM 80.6 °F 80.5 °F 55.4 °F 42% 30.27 in 10.0 mi South 9.2 mph - N/A   Scattered Clouds
3:47 PM 82.4 °F 81.7 °F 55.4 °F 39% 29.80 in 10.0 mi South 10.4 mph - N/A   Scattered Clouds
5:54 PM 82.4 °F 81.4 °F 53.6 °F 37% 30.21 in 10.0 mi WNW 4.6 mph - N/A   Scattered Clouds
6:45 PM 82.4 °F 81.4 °F 53.6 °F 37% 29.74 in 10.0 mi West 4.6 mph - N/A   Scattered Clouds
7:41 PM 78.8 °F - 55.4 °F 44% 30.18 in 10.0 mi SW 5.8 mph - N/A   Scattered Clouds
8:40 PM 73.4 °F - 62.6 °F 69% 30.21 in 8.0 mi Calm Calm - N/A   Scattered Clouds
9:45 PM 71.6 °F - 57.2 °F 60% 29.81 in 8.0 mi Calm Calm - N/A   Mostly Cloudy
10:45 PM 68.0 °F - 57.2 °F 68% 30.25 in 8.0 mi SE 11.5 mph - N/A   Mostly Cloudy
11:50 PM 64.4 °F - 57.2 °F 77% 30.29 in 8.0 mi SE 6.9 mph - N/A   Mostly Cloudy